11/29/2004,4.0985
11/30/2004,4.1045
12/01/2004,4.105
12/02/2004,4.16
12/03/2004,3.993
12/06/2004,3.97
12/07/2004,3.955
12/08/2004,3.8775
12/09/2004,3.9145
12/10/2004,3.9035
12/13/2004,3.911
12/14/2004,3.895
12/15/2004,3.845
12/16/2004,3.9525
12/17/2004,3.969
12/20/2004,3.9645
12/21/2004,3.9615
12/22/2004,3.9715
12/23/2004,3.995
12/27/2004,4.066
12/28/2004,4.072
12/29/2004,4.107
12/30/2004,4.055
12/31/2004,4.025
01/03/2005,4.034
01/04/2005,4.1205
01/05/2005,4.114
01/06/2005,4.095
01/07/2005,4.1265
01/10/2005,4.1355
01/11/2005,4.1125
01/12/2005,4.112
01/13/2005,4.035
01/14/2005,4.097
01/18/2005,4.094
01/19/2005,4.081
01/20/2005,4.057
01/21/2005,4.0155
01/24/2005,4.036
01/25/2005,4.089
01/26/2005,4.106
01/27/2005,4.125
01/28/2005,4.0695
01/31/2005,4.075
02/01/2005,4.088
02/02/2005,4.116
02/03/2005,4.15
02/04/2005,4.065
02/07/2005,4.0555
02/08/2005,4.0425
02/09/2005,3.9635
02/10/2005,4.036
02/11/2005,4.066
02/14/2005,4.075
02/15/2005,4.0975
02/16/2005,4.1675
02/17/2005,4.153
02/18/2005,4.248
02/22/2005,4.264
02/23/2005,4.246
02/24/2005,4.293
02/25/2005,4.288
02/28/2005,4.415
03/01/2005,4.4045
03/02/2005,4.4025
03/03/2005,4.409
03/04/2005,4.354
03/07/2005,4.368
03/08/2005,4.443
03/09/2005,4.5605
03/10/2005,4.541
03/11/2005,4.615
03/14/2005,4.6035
03/15/2005,4.6305
03/16/2005,4.598
03/17/2005,4.553
03/18/2005,4.582
03/21/2005,4.596
03/22/2005,4.75
03/23/2005,4.7155
03/24/2005,4.732
03/28/2005,4.7765
03/29/2005,4.7165
03/30/2005,4.6905
03/31/2005,4.618
04/01/2005,4.5765
04/04/2005,4.588
04/05/2005,4.5895
04/06/2005,4.545
04/07/2005,4.599
04/08/2005,4.6205
04/11/2005,4.583
04/12/2005,4.4995
04/13/2005,4.481
04/14/2005,4.403
04/15/2005,4.3155
04/18/2005,4.3715
04/19/2005,4.2795
04/20/2005,4.2675
04/21/2005,4.397
04/22/2005,4.363
04/25/2005,4.383
04/26/2005,4.4105
04/27/2005,4.3515
04/28/2005,4.2565
04/29/2005,4.35
05/02/2005,4.328
05/03/2005,4.3195
05/04/2005,4.3005
05/05/2005,4.248
05/06/2005,4.398
05/09/2005,4.432
05/10/2005,4.357
05/11/2005,4.362
05/12/2005,4.33
05/13/2005,4.28
05/16/2005,4.284
05/17/2005,4.266
05/18/2005,4.2455
05/19/2005,4.2885
05/20/2005,4.318
05/23/2005,4.246
05/24/2005,4.21
05/25/2005,4.2405
05/26/2005,4.2285
05/27/2005,4.228
05/31/2005,4.149
06/01/2005,4.03
06/02/2005,4.053
06/03/2005,4.1375
06/06/2005,4.12
06/07/2005,4.0825
06/08/2005,4.123
06/09/2005,4.1345
06/10/2005,4.2435
06/13/2005,4.278
06/14/2005,4.288
06/15/2005,4.303
06/16/2005,4.2505
06/17/2005,4.265
06/20/2005,4.286
06/21/2005,4.2235
06/22/2005,4.114
06/23/2005,4.133
06/24/2005,4.089
06/27/2005,4.081
06/28/2005,4.1585
06/29/2005,4.168
06/30/2005,4.13
07/01/2005,4.27
07/05/2005,4.328
07/06/2005,4.296
07/07/2005,4.2815
07/08/2005,4.318
07/11/2005,4.329
07/12/2005,4.372
07/13/2005,4.3795
07/14/2005,4.3965
07/15/2005,4.3975
07/18/2005,4.4485
07/19/2005,4.4165
07/20/2005,4.405
07/21/2005,4.5275
07/22/2005,4.477
07/25/2005,4.511
07/26/2005,4.4885
07/27/2005,4.528
07/28/2005,4.469
07/29/2005,4.563
08/01/2005,4.591
08/02/2005,4.611
08/03/2005,4.565
08/04/2005,4.5855
08/05/2005,4.68
08/08/2005,4.7295
08/09/2005,4.6825
08/10/2005,4.684
08/11/2005,4.597
08/12/2005,4.534
08/15/2005,4.605
08/16/2005,4.515
08/17/2005,4.579
08/18/2005,4.5055
08/19/2005,4.506
08/22/2005,4.52
08/23/2005,4.485
08/24/2005,4.465
08/25/2005,4.481
08/26/2005,4.519
08/29/2005,4.502
08/30/2005,4.3955
08/31/2005,4.2815
09/01/2005,4.261
09/02/2005,4.287
09/06/2005,4.3395
09/07/2005,4.377
09/08/2005,4.389
09/09/2005,4.3705
09/12/2005,4.4015
09/13/2005,4.3645
09/14/2005,4.377
09/15/2005,4.4325
09/16/2005,4.509
09/19/2005,4.469
09/20/2005,4.505
09/21/2005,4.4225
09/22/2005,4.429
09/23/2005,4.5235
09/26/2005,4.57
09/27/2005,4.5675
09/28/2005,4.561
09/29/2005,4.6115
09/30/2005,4.653
10/03/2005,4.713
10/04/2005,4.708
10/05/2005,4.677
10/06/2005,4.7205
10/07/2005,4.691
10/10/2005,4.7
10/11/2005,4.737
10/12/2005,4.7775
10/13/2005,4.794
10/14/2005,4.818
10/17/2005,4.8305
10/18/2005,4.7975
10/19/2005,4.7875
10/20/2005,4.756
10/21/2005,4.7345
10/24/2005,4.7895
10/25/2005,4.882
10/26/2005,4.9405
10/27/2005,4.9005
10/28/2005,4.9365
10/31/2005,4.9385
11/01/2005,4.9575
11/02/2005,5
11/03/2005,5.058
11/04/2005,5.071
11/07/2005,5.0385
11/08/2005,4.9605
11/09/2005,5.0535
11/10/2005,4.967
11/11/2005,4.969
11/14/2005,5.0365
11/15/2005,4.991
11/16/2005,4.9
11/17/2005,4.882
11/18/2005,4.9155
11/21/2005,4.884
11/22/2005,4.8265
11/23/2005,4.859
11/25/2005,4.825
11/28/2005,4.8125
11/29/2005,4.8955
11/30/2005,4.9255
12/01/2005,4.969
12/02/2005,4.9665
12/05/2005,5.019
12/06/2005,4.9315
12/07/2005,4.9595
12/08/2005,4.8985
12/09/2005,4.961
12/12/2005,4.9855
12/13/2005,4.943
12/14/2005,4.89
12/15/2005,4.893
12/16/2005,4.8685
12/19/2005,4.8855
12/20/2005,4.9215
12/21/2005,4.9555
12/22/2005,4.8965
12/23/2005,4.845
12/27/2005,4.818
12/28/2005,4.8455
12/29/2005,4.8475
12/30/2005,4.877
01/03/2006,4.8225
01/04/2006,4.7905
01/05/2006,4.792
01/06/2006,4.8055
01/09/2006,4.7855
01/10/2006,4.8545
01/11/2006,4.883
01/12/2006,4.8285
01/13/2006,4.77
01/17/2006,4.7555
01/18/2006,4.746
01/19/2006,4.7895
01/20/2006,4.7635
01/23/2006,4.766
01/24/2006,4.804
01/25/2006,4.896
01/26/2006,4.93
01/27/2006,4.9415
01/30/2006,4.9565
01/31/2006,4.9565
02/01/2006,5.0175
02/02/2006,5.0205
02/03/2006,4.9955
02/06/2006,5.027
02/07/2006,5.0325
02/08/2006,5.0595
02/09/2006,5.052
02/10/2006,5.098
02/13/2006,5.078
02/14/2006,5.104
02/15/2006,5.1005
02/16/2006,5.0905
02/17/2006,5.058
02/21/2006,5.093
02/22/2006,5.0585
02/23/2006,5.1
02/24/2006,5.109
02/27/2006,5.12
02/28/2006,5.0675
03/01/2006,5.1025
03/02/2006,5.143
03/03/2006,5.1935
03/06/2006,5.25
03/07/2006,5.2335
03/08/2006,5.2205
03/09/2006,5.215
03/10/2006,5.2355
03/13/2006,5.255
03/14/2006,5.154
03/15/2006,5.182
03/16/2006,5.0845
03/17/2006,5.1115
03/20/2006,5.0975
03/21/2006,5.1785
03/22/2006,5.178
03/23/2006,5.2165
03/24/2006,5.1405
03/27/2006,5.167
03/28/2006,5.2535
03/29/2006,5.269
03/30/2006,5.3215
03/31/2006,5.304
04/03/2006,5.3265
04/04/2006,5.31
04/05/2006,5.281
04/06/2006,5.3305
04/07/2006,5.4055
04/10/2006,5.381
04/11/2006,5.3515
04/12/2006,5.4065
04/13/2006,5.467
04/17/2006,5.4185
04/18/2006,5.355
04/19/2006,5.3865
04/20/2006,5.413
04/21/2006,5.3955
04/24/2006,5.37
04/25/2006,5.45
04/26/2006,5.4935
04/27/2006,5.4235
04/28/2006,5.4005
05/01/2006,5.4925
05/02/2006,5.468
05/03/2006,5.5015
05/04/2006,5.527
05/05/2006,5.4725
05/08/2006,5.487
05/09/2006,5.49
05/10/2006,5.4995
05/11/2006,5.5065
05/12/2006,5.556
05/15/2006,5.5115
05/16/2006,5.462
05/17/2006,5.5015
05/18/2006,5.4325
05/19/2006,5.4675
05/22/2006,5.455
05/23/2006,5.434
05/24/2006,5.4425
05/25/2006,5.4775
05/26/2006,5.453
05/30/2006,5.4905
05/31/2006,5.5515
06/01/2006,5.5365
06/02/2006,5.4085
06/05/2006,5.457
06/06/2006,5.451
06/07/2006,5.4785
06/08/2006,5.4655
06/09/2006,5.453
06/12/2006,5.4625
06/13/2006,5.444
06/14/2006,5.5605
06/15/2006,5.5975
06/16/2006,5.6295
06/19/2006,5.65
06/20/2006,5.6645
06/21/2006,5.67
06/22/2006,5.7275
06/23/2006,5.7465
06/26/2006,5.7535
06/27/2006,5.7245
06/28/2006,5.7725
06/29/2006,5.7015
06/30/2006,5.648
07/03/2006,5.667
07/05/2006,5.7465
07/06/2006,5.711
07/07/2006,5.6615
07/10/2006,5.6555
07/11/2006,5.6305
07/12/2006,5.635
07/13/2006,5.5935
07/14/2006,5.588
07/17/2006,5.5945
07/18/2006,5.6695
07/19/2006,5.5745
07/20/2006,5.521
07/21/2006,5.535
07/24/2006,5.5325
07/25/2006,5.553
07/26/2006,5.5065
07/27/2006,5.505
07/28/2006,5.444
07/31/2006,5.4195
08/01/2006,5.4175
08/02/2006,5.41
08/03/2006,5.4305
08/04/2006,5.35
08/07/2006,5.3795
08/08/2006,5.354
08/09/2006,5.365
08/10/2006,5.371
08/11/2006,5.416
08/14/2006,5.455
08/15/2006,5.3805
08/16/2006,5.299
08/17/2006,5.2955
08/18/2006,5.271
08/21/2006,5.2515
08/22/2006,5.25
08/23/2006,5.2615
08/24/2006,5.2665
08/25/2006,5.244
08/28/2006,5.2595
08/29/2006,5.2375
08/30/2006,5.2115
08/31/2006,5.1805
09/01/2006,5.167
09/05/2006,5.2
09/06/2006,5.2135
09/07/2006,5.208
09/08/2006,5.203
09/11/2006,5.2245
09/12/2006,5.2
09/13/2006,5.1905
09/14/2006,5.23
09/15/2006,5.2475
09/18/2006,5.2685
09/19/2006,5.188
09/20/2006,5.186
09/21/2006,5.0705
09/22/2006,5.0255
09/25/2006,4.9765
09/26/2006,5.0335
09/27/2006,5.0315
09/28/2006,5.045
09/29/2006,5.074
10/02/2006,5.04
10/03/2006,5.0495
10/04/2006,4.9775
10/05/2006,5.0325
10/06/2006,5.139
10/09/2006,5.137
10/10/2006,5.2175
10/11/2006,5.247
10/12/2006,5.234
10/13/2006,5.2585
10/16/2006,5.2275
10/17/2006,5.2145
10/18/2006,5.204
10/19/2006,5.229
10/20/2006,5.238
10/23/2006,5.279
10/24/2006,5.273
10/25/2006,5.2125
10/26/2006,5.1525
10/27/2006,5.1045
10/30/2006,5.1046
10/31/2006,5.0327
11/01/2006,4.988
11/02/2006,5.0185
11/03/2006,5.167
11/06/2006,5.1478
11/07/2006,5.0965
11/08/2006,5.068
11/09/2006,5.0545
11/10/2006,5.0279
11/13/2006,5.0535
11/14/2006,5.0055
11/15/2006,5.0658
11/16/2006,5.098
11/17/2006,5.0125
11/20/2006,5.014
11/21/2006,4.9885
11/22/2006,4.975
11/24/2006,4.965
11/27/2006,4.9414
11/28/2006,4.902
11/29/2006,4.9205
11/30/2006,4.8528
12/01/2006,4.786
12/04/2006,4.771
12/05/2006,4.7795
12/06/2006,4.852
12/07/2006,4.876
12/08/2006,4.945
12/11/2006,4.9174
12/12/2006,4.868
12/13/2006,4.9576
12/14/2006,4.982
12/15/2006,4.9786
12/18/2006,4.9803
12/19/2006,4.9865
12/20/2006,4.993
12/21/2006,4.936
12/22/2006,5.0125
12/26/2006,4.9983
12/27/2006,5.048
12/28/2006,5.083
12/29/2006,5.0885
01/03/2007,5.044
01/04/2007,4.9796
01/05/2007,5.0225
01/08/2007,5.0375
01/09/2007,5.047
01/10/2007,5.085
01/11/2007,5.1365
01/12/2007,5.183
01/16/2007,5.156
01/17/2007,5.1975
01/18/2007,5.157
01/19/2007,5.186
01/22/2007,5.1669
01/23/2007,5.2122
01/24/2007,5.209
01/25/2007,5.2925
01/26/2007,5.2965
01/29/2007,5.3301
01/30/2007,5.3036
01/31/2007,5.2405
02/01/2007,5.275
02/02/2007,5.235
02/05/2007,5.203
02/06/2007,5.1686
02/07/2007,5.1455
02/08/2007,5.146
02/09/2007,5.2045
02/12/2007,5.2337
02/13/2007,5.2318
02/14/2007,5.1428
02/15/2007,5.1115
02/16/2007,5.111
02/20/2007,5.0869
02/21/2007,5.107
02/22/2007,5.149
02/23/2007,5.0955
02/26/2007,5.053
02/27/2007,4.936
02/28/2007,4.992
03/01/2007,4.9745
03/02/2007,4.9325
03/05/2007,4.93
03/06/2007,4.9555
03/07/2007,4.898
03/08/2007,4.925
03/09/2007,5.0185
03/12/2007,4.9765
03/13/2007,4.884
03/14/2007,4.9255
03/15/2007,4.928
03/16/2007,4.9425
03/19/2007,4.965
03/20/2007,4.9455
03/21/2007,4.886
03/22/2007,4.9335
03/23/2007,4.976
03/26/2007,4.9595
03/27/2007,4.949
03/28/2007,4.9575
03/29/2007,4.9995
03/30/2007,4.993
04/02/2007,4.9925
04/03/2007,5.0245
04/04/2007,5.0095
04/05/2007,5.0345
04/09/2007,5.1205
04/10/2007,5.094
04/11/2007,5.112
04/12/2007,5.12
04/13/2007,5.149
04/16/2007,5.123
04/17/2007,5.0505
04/18/2007,5.011
04/19/2007,5.0235
04/20/2007,5.0275
04/23/2007,4.9945
04/24/2007,4.9665
04/25/2007,5.009
04/26/2007,5.0705
04/27/2007,5.061
04/30/2007,4.993
05/01/2007,5.016
05/02/2007,5.024
05/03/2007,5.062
05/04/2007,5.0275
05/07/2007,5.0275
05/08/2007,5.019
05/09/2007,5.0655
05/10/2007,5.028
05/11/2007,5.0675
05/14/2007,5.0945
05/15/2007,5.1025
05/16/2007,5.1095
05/17/2007,5.162
05/18/2007,5.2195
05/21/2007,5.1965
05/22/2007,5.2435
05/23/2007,5.26
05/24/2007,5.256
05/25/2007,5.2785
05/29/2007,5.3275
05/30/2007,5.312
05/31/2007,5.346
06/01/2007,5.424
06/04/2007,5.408
06/05/2007,5.47
06/06/2007,5.43
06/07/2007,5.5995
06/08/2007,5.5595
06/11/2007,5.5985
06/12/2007,5.747
06/13/2007,5.6615
06/14/2007,5.677
06/15/2007,5.594
06/18/2007,5.562
06/19/2007,5.4995
06/20/2007,5.573
06/21/2007,5.618
06/22/2007,5.555
06/25/2007,5.52
06/26/2007,5.5135
06/27/2007,5.515
06/28/2007,5.5555
06/29/2007,5.4875
07/02/2007,5.4475
07/03/2007,5.484
07/05/2007,5.602
07/06/2007,5.6465
07/09/2007,5.606
07/10/2007,5.5015
07/11/2007,5.554
07/12/2007,5.5915
07/13/2007,5.5665
07/16/2007,5.5165
07/17/2007,5.537
07/18/2007,5.516
07/19/2007,5.4975
07/20/2007,5.4435
07/23/2007,5.4525
07/24/2007,5.416
07/25/2007,5.4045
07/26/2007,5.2785
07/27/2007,5.2605
07/30/2007,5.3095
07/31/2007,5.244
08/01/2007,5.301
08/02/2007,5.264
08/03/2007,5.1625
08/06/2007,5.2185
08/07/2007,5.2175
08/08/2007,5.3155
08/09/2007,5.2115
08/10/2007,5.2605
08/13/2007,5.218
08/14/2007,5.207
08/15/2007,5.1725
08/16/2007,5.1115
08/17/2007,5.1115
08/20/2007,5.052
08/21/2007,5.0115
08/22/2007,5.0875
08/23/2007,5.1115
08/24/2007,5.068
08/27/2007,5.0085
08/28/2007,4.9395
08/29/2007,5.0185
08/30/2007,4.9525
08/31/2007,4.961
09/04/2007,4.9935
09/05/2007,4.8805
09/06/2007,4.9335
09/07/2007,4.735
09/10/2007,4.68
09/11/2007,4.7615
09/12/2007,4.791
09/13/2007,4.8555
09/14/2007,4.856
09/17/2007,4.8785
09/18/2007,4.7655
09/19/2007,4.82
09/20/2007,5.022
09/21/2007,4.9325
09/24/2007,4.96
09/25/2007,4.9375
09/26/2007,4.9175
09/27/2007,4.847
09/28/2007,4.885
10/01/2007,4.8845
10/02/2007,4.854
10/03/2007,4.9025
10/04/2007,4.864
10/05/2007,4.997
10/08/2007,5.001
10/09/2007,5.032
10/10/2007,5.0115
10/11/2007,4.9655
10/12/2007,5.048
10/15/2007,5.0415
10/16/2007,4.984
10/17/2007,4.8765
10/18/2007,4.8135
10/19/2007,4.7065
10/22/2007,4.753
10/23/2007,4.7125
10/24/2007,4.6325
10/25/2007,4.683
10/26/2007,4.7205
10/29/2007,4.7095
10/30/2007,4.7005
10/31/2007,4.822
11/01/2007,4.6975
11/02/2007,4.6725
11/05/2007,4.7225
11/06/2007,4.7425
11/07/2007,4.679
11/08/2007,4.6165
11/09/2007,4.565
11/12/2007,4.567
11/13/2007,4.6305
11/14/2007,4.591
11/15/2007,4.4835
11/16/2007,4.5115
11/19/2007,4.436
11/20/2007,4.5105
11/21/2007,4.36
11/23/2007,4.346
11/26/2007,4.1295
11/27/2007,4.2345
11/28/2007,4.2995
11/29/2007,4.2035
11/30/2007,4.1695
12/03/2007,4.0855
12/04/2007,4.1265
12/05/2007,4.1715
12/06/2007,4.2335
12/07/2007,4.385
12/10/2007,4.4505
12/11/2007,4.2545
12/12/2007,4.3335
12/13/2007,4.412
12/14/2007,4.489
12/17/2007,4.379
12/18/2007,4.344
12/19/2007,4.2155
12/20/2007,4.236
12/21/2007,4.3655
12/24/2007,4.423
01/02/2008,4.0365
01/03/2008,4.0085
01/04/2008,3.924
01/07/2008,3.885
01/08/2008,3.82
01/09/2008,3.872
01/10/2008,3.8665
01/11/2008,3.721
01/14/2008,3.7
01/15/2008,3.5835
01/16/2008,3.6725
01/17/2008,3.5465
01/18/2008,3.534
01/22/2008,3.2565
01/23/2008,3.4615
01/24/2008,3.626
01/25/2008,3.4575
01/28/2008,3.4895
01/29/2008,3.5825
01/30/2008,3.5705
01/31/2008,3.4835
02/01/2008,3.4855
02/04/2008,3.522
02/05/2008,3.4165
02/06/2008,3.4305
02/07/2008,3.626
02/08/2008,3.4935
02/11/2008,3.4865
02/12/2008,3.532
02/13/2008,3.591
02/14/2008,3.6805
02/15/2008,3.658
02/19/2008,3.882
02/20/2008,3.8715
02/21/2008,3.7025
02/22/2008,3.7665
02/25/2008,3.876
02/26/2008,3.764
02/27/2008,3.737
02/28/2008,3.556
02/29/2008,3.3545
03/03/2008,3.4015
03/04/2008,3.535
03/05/2008,3.6385
03/06/2008,3.615
03/07/2008,3.5075
03/10/2008,3.465
03/11/2008,3.5515
03/12/2008,3.4055
03/13/2008,3.419
03/14/2008,3.317
03/17/2008,3.062
03/18/2008,3.2715
03/19/2008,3.1375
03/20/2008,3.246
03/24/2008,3.486
03/25/2008,3.455
03/26/2008,3.368
03/27/2008,3.45
03/28/2008,3.3675
03/31/2008,3.2995
04/01/2008,3.474
04/02/2008,3.5945
04/03/2008,3.5985
04/04/2008,3.4265
04/07/2008,3.507
04/08/2008,3.518
04/09/2008,3.4065
04/10/2008,3.4855
04/11/2008,3.3895
04/14/2008,3.464
04/15/2008,3.5905
04/16/2008,3.762
04/17/2008,3.8065
04/18/2008,3.744
04/21/2008,3.776
04/22/2008,3.767
04/23/2008,3.7925
04/24/2008,3.9165
04/25/2008,3.9645
04/28/2008,3.9015
04/29/2008,3.8845
04/30/2008,3.774
05/01/2008,3.8305
05/02/2008,3.9415
05/05/2008,3.9225
05/06/2008,3.9535
05/07/2008,3.8605
05/08/2008,3.7465
05/09/2008,3.7665
05/12/2008,3.8105
05/13/2008,4.0055
05/14/2008,4.0295
05/15/2008,3.8745
05/16/2008,3.8955
05/19/2008,3.8505
05/20/2008,3.7915
05/21/2008,3.8635
05/22/2008,4.0205
05/23/2008,3.946
05/27/2008,4.0555
05/28/2008,4.1755
05/29/2008,4.2495
05/30/2008,4.226
06/02/2008,4.0885
06/03/2008,4.0115
06/04/2008,4.1255
06/05/2008,4.2215
06/06/2008,4.1295
06/09/2008,4.3405
06/10/2008,4.5355
06/11/2008,4.3975
06/12/2008,4.6205
06/13/2008,4.649
06/16/2008,4.682
06/17/2008,4.5415
06/18/2008,4.4175
06/19/2008,4.5055
06/20/2008,4.4845
06/23/2008,4.5455
06/24/2008,4.4355
06/25/2008,4.4215
06/26/2008,4.3355
06/27/2008,4.2675
06/30/2008,4.2575
07/01/2008,4.2985
07/02/2008,4.2785
07/03/2008,4.26
07/07/2008,4.2075
07/08/2008,4.1555
07/09/2008,4.0465
07/10/2008,4.0185
07/11/2008,4.1855
07/14/2008,4.088
07/15/2008,4.0175
07/16/2008,4.1415
07/17/2008,4.2585
07/18/2008,4.4085
07/21/2008,4.3465
07/22/2008,4.4175
07/23/2008,4.4125
07/24/2008,4.2125
07/25/2008,4.3355
07/28/2008,4.213
07/29/2008,4.271
07/30/2008,4.241
07/31/2008,4.151
08/01/2008,4.152
08/04/2008,4.216
08/05/2008,4.255
08/06/2008,4.2935
08/07/2008,4.1645
08/08/2008,4.1795
08/11/2008,4.245
08/12/2008,4.1255
08/13/2008,4.175
08/14/2008,4.139
08/15/2008,4.101
08/18/2008,4.115
08/19/2008,4.0855
08/20/2008,4.013
08/21/2008,4.052
08/22/2008,4.128
08/25/2008,4.0605
08/26/2008,4.033
08/27/2008,3.996
08/28/2008,4.007
08/29/2008,4.02
09/02/2008,3.9435
09/03/2008,3.9035
09/04/2008,3.808
09/05/2008,3.923
09/08/2008,3.8075
09/09/2008,3.7545
09/10/2008,3.7875
09/11/2008,3.785
09/12/2008,3.8585
09/15/2008,3.453
09/16/2008,3.565
09/17/2008,3.554
09/18/2008,3.7195
09/19/2008,4.0519
09/22/2008,4.1038
09/23/2008,4.1205
09/24/2008,4.193
09/25/2008,4.1678
09/26/2008,4.1603
09/29/2008,3.8281
09/30/2008,4.0873
10/01/2008,3.9972
10/02/2008,3.896
10/03/2008,3.7925
10/06/2008,3.5595
10/07/2008,3.567
10/08/2008,3.7136
10/09/2008,3.914
10/10/2008,3.9211
10/13/2008,3.9458
10/14/2008,4.1387
10/15/2008,3.9865
10/16/2008,4.004
10/17/2008,3.9075
10/20/2008,3.775
10/21/2008,3.6215
10/22/2008,3.487
10/23/2008,3.6245
10/24/2008,3.692
10/27/2008,3.734
10/28/2008,3.8425
10/29/2008,3.775
10/30/2008,3.8685
10/31/2008,3.8431
11/03/2008,3.815
11/04/2008,3.5875
11/05/2008,3.5159
11/06/2008,3.511
11/07/2008,3.5987
11/10/2008,3.521
11/11/2008,3.506
11/12/2008,3.353
11/13/2008,3.4905
11/14/2008,3.4115
11/17/2008,3.3235
11/18/2008,3.2262
11/19/2008,3.0048
11/20/2008,2.817
11/21/2008,3.0103
11/24/2008,3.19
11/25/2008,2.9018
11/26/2008,2.852
11/28/2008,2.7615
12/01/2008,2.5808
12/02/2008,2.503
12/03/2008,2.5525
12/04/2008,2.5285
12/05/2008,2.673
12/08/2008,2.6626
12/09/2008,2.581
12/10/2008,2.5228
12/11/2008,2.4165
12/12/2008,2.3773
12/15/2008,2.3626
12/16/2008,2.0273
12/17/2008,2.072
12/18/2008,2.0043
12/19/2008,2.0826
12/22/2008,2.187
12/23/2008,2.1546
12/24/2008,2.169
12/26/2008,2.1455
12/29/2008,2.0798
12/30/2008,2.0489
12/31/2008,2.133
01/02/2009,2.2755
01/05/2009,2.273
01/06/2009,2.184
01/07/2009,2.1655
01/08/2009,2.081
01/09/2009,2.025
01/12/2009,1.9595
01/13/2009,1.9916
01/14/2009,1.911
01/15/2009,1.952
01/16/2009,2.0097
01/20/2009,2.046
01/21/2009,2.173
01/22/2009,2.203
01/23/2009,2.2375
01/26/2009,2.3049
01/27/2009,2.2154
01/28/2009,2.3245
01/29/2009,2.4883
01/30/2009,2.513
02/02/2009,2.3975
02/03/2009,2.541
02/04/2009,2.5805
02/05/2009,2.5475
02/06/2009,2.5935
02/09/2009,2.5945
02/10/2009,2.4628
02/11/2009,2.4335
02/12/2009,2.4468
02/13/2009,2.5768
02/17/2009,2.4018
02/18/2009,2.467
02/19/2009,2.509
02/20/2009,2.475
02/23/2009,2.4355
02/24/2009,2.5105
02/25/2009,2.6687
02/26/2009,2.6836
02/27/2009,2.6581
03/02/2009,2.524
03/03/2009,2.533
03/04/2009,2.632
03/05/2009,2.513
03/06/2009,2.5828
03/09/2009,2.5808
03/10/2009,2.6608
03/11/2009,2.5475
03/12/2009,2.494
03/13/2009,2.5073
03/16/2009,2.5465
03/17/2009,2.598
03/18/2009,2.2655
03/19/2009,2.3118
03/20/2009,2.3212
03/23/2009,2.3152
03/24/2009,2.318
03/25/2009,2.371
03/26/2009,2.3154
03/27/2009,2.308
03/30/2009,2.2409
03/31/2009,2.2055
04/01/2009,2.2125
04/02/2009,2.2991
04/03/2009,2.4068
04/06/2009,2.467
04/07/2009,2.4499
04/08/2009,2.42
04/09/2009,2.465
04/13/2009,2.4024
04/14/2009,2.3158
04/15/2009,2.2769
04/16/2009,2.3495
04/17/2009,2.4797
04/20/2009,2.4235
04/21/2009,2.482
04/22/2009,2.503
04/23/2009,2.4647
04/24/2009,2.5387
04/27/2009,2.435
04/28/2009,2.5134
04/29/2009,2.5719
04/30/2009,2.5622
05/01/2009,2.598
05/04/2009,2.6171
05/05/2009,2.5879
05/06/2009,2.557
05/07/2009,2.6694
05/08/2009,2.6339
05/11/2009,2.5375
05/12/2009,2.5002
05/13/2009,2.448
05/14/2009,2.4395
05/15/2009,2.458
05/18/2009,2.5193
05/19/2009,2.501
05/20/2009,2.4398
05/21/2009,2.5831
05/22/2009,2.6602
05/26/2009,2.8055
05/27/2009,2.9905
05/28/2009,2.9185
05/29/2009,2.764
06/01/2009,3.042
06/02/2009,2.994
06/03/2009,2.8993
06/04/2009,3.088
06/05/2009,3.352
06/08/2009,3.521
06/09/2009,3.4066
06/10/2009,3.4644
06/11/2009,3.368
06/12/2009,3.23
06/15/2009,3.1347
06/16/2009,3.077
06/17/2009,3.07
06/18/2009,3.28
06/19/2009,3.232
06/22/2009,3.1308
06/23/2009,3.0983
06/24/2009,3.133
06/25/2009,2.9575
06/26/2009,2.9305
06/29/2009,2.8937
06/30/2009,2.9745
07/01/2009,2.926
07/02/2009,2.8363
07/06/2009,2.81
07/07/2009,2.7689
07/08/2009,2.6414
07/09/2009,2.7245
07/10/2009,2.651
07/13/2009,2.7086
07/14/2009,2.8275
07/15/2009,2.9915
07/16/2009,2.9335
07/17/2009,2.9915
07/20/2009,2.96
07/21/2009,2.8225
07/22/2009,2.8504
07/23/2009,2.99
07/24/2009,2.9845
07/27/2009,3.0215
07/28/2009,3.0055
07/29/2009,3.022
07/30/2009,2.99
07/31/2009,2.8715
08/03/2009,3.041
08/04/2009,3.087
08/05/2009,3.149
08/06/2009,3.158
08/07/2009,3.286
08/10/2009,3.2015
08/11/2009,3.08
08/12/2009,3.052
08/13/2009,2.932
08/14/2009,2.893
08/17/2009,2.8065
08/18/2009,2.888
08/19/2009,2.8485
08/20/2009,2.823
08/21/2009,2.9935
08/24/2009,2.902
08/25/2009,2.85
08/26/2009,2.838
08/27/2009,2.844
08/28/2009,2.823
08/31/2009,2.758
09/01/2009,2.7035
09/02/2009,2.641
09/03/2009,2.6835
09/04/2009,2.7406
09/08/2009,2.773
09/09/2009,2.733
09/10/2009,2.645
09/11/2009,2.6695
09/14/2009,2.7475
09/15/2009,2.7815
09/16/2009,2.815
09/17/2009,2.7309
09/18/2009,2.8315
09/21/2009,2.8425
09/22/2009,2.8045
09/23/2009,2.7449
09/24/2009,2.6925
09/25/2009,2.688
09/28/2009,2.635
09/29/2009,2.654
09/30/2009,2.65
10/01/2009,2.532
10/02/2009,2.5685
10/05/2009,2.581
10/06/2009,2.619
10/07/2009,2.54
10/08/2009,2.5714
10/09/2009,2.707
10/12/2009,2.7664
10/13/2009,2.6525
10/14/2009,2.697
10/15/2009,2.7565
10/16/2009,2.7385
10/19/2009,2.717
10/20/2009,2.6565
10/21/2009,2.706
10/22/2009,2.726
10/23/2009,2.8095
10/26/2009,2.8678
10/27/2009,2.7445
10/28/2009,2.696
10/29/2009,2.7685
10/30/2009,2.6615
11/02/2009,2.69
11/03/2009,2.726
11/04/2009,2.7475
11/05/2009,2.7125
11/06/2009,2.658
11/09/2009,2.645
11/10/2009,2.622
11/11/2009,2.625
11/12/2009,2.5715
11/13/2009,2.571
11/16/2009,2.4795
11/17/2009,2.455
11/18/2009,2.476
11/19/2009,2.4575
11/20/2009,2.4945
11/23/2009,2.4855
11/24/2009,2.4105
11/25/2009,2.402
11/27/2009,2.348
11/30/2009,2.3215
12/01/2009,2.383
12/02/2009,2.4285
12/03/2009,2.483
12/04/2009,2.6179
12/07/2009,2.5545
12/08/2009,2.4905
12/09/2009,2.5205
12/10/2009,2.5585
12/11/2009,2.6265
12/14/2009,2.6685
12/15/2009,2.7135
12/16/2009,2.716
12/17/2009,2.587
12/18/2009,2.643
12/21/2009,2.7809
12/22/2009,2.8535
12/23/2009,2.8645
12/24/2009,2.915
12/28/2009,2.9835
12/29/2009,2.94
12/30/2009,2.935
12/31/2009,2.981
01/04/2010,2.9225
01/05/2010,2.847
01/06/2010,2.8865
01/07/2010,2.915
01/08/2010,2.8915
01/11/2010,2.8509
01/12/2010,2.765
01/13/2010,2.8225
01/14/2010,2.778
01/15/2010,2.7098
01/19/2010,2.728
01/20/2010,2.705
01/21/2010,2.646
01/22/2010,2.6745
01/25/2010,2.675
01/26/2010,2.6555
01/27/2010,2.7145
01/28/2010,2.683
01/29/2010,2.63